Location: Coupvray
(48.8929°N, 2.7967°E)
Time: 10:49:10
(UTC+00:00)

Altair 2 - Pass Details

Date: 22 January 2021
Orbit: 837 x 949 km, 90.2° (Epoch: 26 February)

Event Time Altitude Azimuth Distance (km) Brightness Sun altitude
Rises 17:41:26 0° 164° (SSE) 3,389 10.9 -11.5°
Reaches altitude 10° 17:43:50 10° 160° (SSE) 2,452 10.1 -11.9°
Maximum altitude 17:49:12 58° 83° (E) 970 7.7 -12.8°
Drops below altitude 10° 17:54:35 10° 5° (N) 2,470 9.9 -13.6°
Sets 17:57:01 0° 2° (N) 3,416 10.7 -14.0°
